Location: Amsterdam
(30.7274°N, 84.4357°W)
Time: 02:26:22
(UTC+00:00)

Transit 2A Rocket - Pass Details

Date: 21 February 2026
Orbit: 583 x 900 km, 66.7° (Epoch: 12 March)

Event Time Altitude Azimuth Distance (km) Brightness Sun altitude
Rises 21:21:58 0° 240° (WSW) 3,464 9.8 24.9°
Reaches altitude 10° 21:24:59 10° 255° (WSW) 2,552 9.4 24.4°
Maximum altitude 21:29:33 22° 305° (NW) 1,838 7.5 23.5°
Drops below altitude 10° 21:34:10 10° 355° (N) 2,568 7.6 22.6°
Sets 21:37:15 0° 10° (N) 3,491 8.1 22.1°
